Location: C�mpuri de-Sus
(45.9500°N, 22.5500°E)
Time: 12:16:08
(UTC+00:00)

X-37B - Pass Details

Date: 24 October 2021
Orbit: 330 x 341 km, 45.0° (Epoch: 20 November)

Event Time Altitude Azimuth Distance (km) Brightness Sun altitude
Rises 17:41:48 0° 275° (W) 2,126 5.8 -23.8°
Reaches altitude 10° 17:44:10 10° 256° (WSW) 1,284 4.1 -24.2°
Enters shadow 17:45:16 16° 236° (SW) 1,008 3.2 -24.4°
